TimeMDT,TemperatureF,Dew PointF,Humidity,Sea Level PressureIn,VisibilityMPH,Wind Direction,Wind SpeedMPH,Gust SpeedMPH,PrecipitationIn,Events,Conditions,WindDirDegrees,DateUTC
12:53 AM,36.0,33.1,89,29.68,10.0,SW,5.8,-,N/A,,Clear,220,2012-10-13 06:53:00
1:53 AM,36.0,34.0,93,29.70,9.0,WSW,4.6,-,N/A,,Clear,240,2012-10-13 07:53:00
2:53 AM,39.9,35.1,83,29.70,9.0,SW,9.2,-,N/A,,Clear,230,2012-10-13 08:53:00
3:53 AM,39.0,34.0,82,29.72,10.0,WSW,8.1,-,N/A,,Clear,250,2012-10-13 09:53:00
4:53 AM,39.0,35.1,86,29.74,10.0,SW,5.8,-,N/A,,Clear,220,2012-10-13 10:53:00
5:53 AM,39.9,36.0,86,29.75,9.0,SW,6.9,-,N/A,,Clear,220,2012-10-13 11:53:00
6:53 AM,37.9,35.1,89,29.79,9.0,SW,8.1,-,N/A,,Clear,230,2012-10-13 12:53:00
7:53 AM,37.9,35.1,89,29.84,8.0,West,5.8,-,N/A,,Clear,260,2012-10-13 13:53:00
8:53 AM,44.1,37.0,76,29.86,9.0,SW,5.8,-,N/A,,Clear,230,2012-10-13 14:53:00
9:53 AM,51.1,37.0,59,29.88,9.0,WSW,3.5,-,N/A,,Clear,250,2012-10-13 15:53:00
10:53 AM,53.1,37.0,55,29.88,8.0,Calm,Calm,-,N/A,,Clear,0,2012-10-13 16:53:00
11:53 AM,57.0,37.9,49,29.88,10.0,Calm,Calm,-,N/A,,Overcast,0,2012-10-13 17:53:00
12:53 PM,57.9,37.9,47,29.88,10.0,Calm,Calm,-,N/A,,Overcast,0,2012-10-13 18:53:00
1:53 PM,59.0,37.9,46,29.87,10.0,West,5.8,-,N/A,,Overcast,260,2012-10-13 19:53:00
2:53 PM,61.0,37.0,41,29.86,10.0,Calm,Calm,-,N/A,,Mostly Cloudy,0,2012-10-13 20:53:00
3:53 PM,63.0,37.9,40,29.87,10.0,SSW,5.8,-,N/A,,Partly Cloudy,210,2012-10-13 21:53:00
4:53 PM,62.1,39.0,43,29.89,10.0,SW,5.8,-,N/A,,Overcast,220,2012-10-13 22:53:00
6:53 PM,54.0,39.9,59,29.92,10.0,Calm,Calm,-,N/A,,Clear,0,2012-10-14 00:53:00
7:53 PM,48.9,37.0,64,29.96,10.0,ENE,3.5,-,N/A,,Partly Cloudy,60,2012-10-14 01:53:00
8:53 PM,45.0,36.0,71,29.96,10.0,Calm,Calm,-,N/A,,Clear,0,2012-10-14 02:53:00
10:53 PM,44.6,35.6,71,29.93,10.0,Calm,Calm,-,N/A,,Overcast,0,2012-10-14 04:53:00
11:53 PM,45.0,37.0,74,29.95,10.0,Calm,Calm,-,N/A,,Mostly Cloudy,0,2012-10-14 05:53:00